STARLINK-36647

Last updated on Sun Mar 15 2026 00:02:07 GMT+0000 (Coordinated Universal Time)

1 67824U 26033D 26073.58335648 -.01947482 00000+0 -21295-1 0 9997 2 67824 42.9992 241.7940 0001638 274.2372 141.2431 15.65619239 5453
UTC large
Height (km)
Speed (km/s)
/
Latitude / Longitude
Inclination (degrees)
Orbital Period (minutes)
Azimuth
Elevation
Range (km)
Doppler Factor

Next 0 passes for location: London (51.5072 / 0.1276)

Sorry there are no passes over London.